{"data":{"norad_id":62762,"intl_designator":"2025-015E","name":"STARLINK-33577","alt_names":[],"object_type":"PAYLOAD","status":"ACTIVE","operator":null,"country":"US","launch_date":"2025-01-21","launch_site_code":"AFWTR","launch_vehicle":null,"mission":null,"orbit_class":"UNKNOWN","rcs_meters":null,"size_class":null,"mass_kg":null,"dimensions":null,"purposes":["comms"],"wikipedia_slug":null,"has_3d_model":false,"image_url":null,"decayed_at":null,"tle_current":{"epoch":"2026-09-21T20:50:45.728448Z","epoch_age_seconds":53125,"freshness":"FRESH","line1":"1 62762U 25015E   26264.86858482  .00010024  00000+0  33420-3 0  9996","line2":"2 62762  53.1597 129.3327 0001862 126.8970 233.2202 15.31714907 94546","mean_motion":15.31714907,"eccentricity":0.0001862,"inclination_deg":53.1597,"raan_deg":129.3327,"arg_perigee_deg":126.897,"mean_anomaly_deg":233.2202,"bstar":0.0003342,"rev_number":9454,"period_min":94.012273003229,"perigee_km":469.42030597233,"apogee_km":471.97081121715,"semimajor_km":6848.8325585947,"source":"CELESTRAK","updated_at":"2026-09-22T09:00:49.661216Z"}}}